Weather History for Kaunas, Lithuania

Change the Weather History Date:

Saturday, February 22, 2014

  Actual Average (EYVI) Record (EYVI)
Temperature  
Mean Temperature 35 °F -  
Max Temperature 44 °F 30 °F 48 °F (1998)
Min Temperature 26 °F 18 °F -5 °F (2007)
Degree Days  
Heating Degree Days 30    
Moisture  
Dew Point 33 °F    
Average Humidity 83    
Maximum Humidity 100    
Minimum Humidity 70    
Precipitation  
Precipitation 0.00 in - - ()
Sea Level Pressure  
Sea Level Pressure 29.91 in    
Wind  
Wind Speed 6 mph ()    
Max Wind Speed 10 mph    
Max Gust Speed -    
Visibility 4.9 miles    
Events Fog , Rain    
Averages and records for this station are not official NWS values.
T = Trace of Precipitation, MM = Missing Value Source: Averaged Metar Reports

Daily Weather History Graph

Daily Weather History Graph

Search for Another Location

Airport:

Trip Planner

Search our weather history database for the weather conditions in past years. The results will help you decide how hot, cold, wet, or windy it might be!

Date:

Astronomy

Feb. 22, 2014 Rise Set
Actual Time 7:30 AM EET 5:44 PM EET
Civil Twilight 6:53 AM EET 6:21 PM EET
Nautical Twilight 6:11 AM EET 7:03 PM EET
Astronomical Twilight 5:29 AM EET 7:45 PM EET
Moon 1:28 AM EET (2/22) 10:16 AM EET (2/22)
Length of Visible Light 11h 27m
Length of Day
10h 13m
Waning Gibbous, 53% of the Moon is Illuminated
Feb 22
Waning Gibbous
Feb 22
Last Quarter
Mar 1
New
Mar 8
First Quarter
Mar 16
Full

Hourly Weather History & Observations

Time (EET) Temp. Windchill Dew Point Humidity Pressure Visibility Wind Dir Wind Speed Gust Speed Precip Events Conditions
12:20 AM 39.2 °F 33.0 °F 32.0 °F 75% 29.80 in 6.2 mi SSE 9.2 mph - N/A   Mostly Cloudy
12:50 AM 39.2 °F 32.5 °F 32.0 °F 75% 29.80 in 6.2 mi SSE 10.4 mph - N/A   Overcast
1:20 AM 39.2 °F 33.0 °F 30.2 °F 70% 29.80 in 6.2 mi SSE 9.2 mph - N/A   Partly Cloudy
1:50 AM 37.4 °F 30.8 °F 30.2 °F 75% 29.80 in 6.2 mi SSE 9.2 mph - N/A   Unknown
2:00 AM 36 °F - 32 °F 78% 29.83 in 12 mi SSE 8.9 mph - -   Partly Cloudy
2:20 AM 39.2 °F 33.6 °F 30.2 °F 70% 29.80 in 6.2 mi SSE 8.1 mph - N/A   Unknown
2:50 AM 39.2 °F 33.6 °F 32.0 °F 75% 29.80 in 6.2 mi SSE 8.1 mph - N/A   Overcast
3:20 AM 39.2 °F 34.2 °F 32.0 °F 75% 29.80 in 6.2 mi South 6.9 mph - N/A   Overcast
3:50 AM 39.2 °F 35.0 °F 32.0 °F 75% 29.80 in 6.2 mi South 5.8 mph - N/A   Overcast
4:20 AM 39.2 °F 33.6 °F 32.0 °F 75% 29.80 in 6.2 mi South 8.1 mph - N/A   Overcast
4:50 AM 39.2 °F 33.6 °F 32.0 °F 75% 29.80 in 6.2 mi South 8.1 mph - N/A   Overcast
5:00 AM 37 °F - 33 °F 80% 29.83 in 11 mi South 4.5 mph - -   Overcast
5:20 AM 39.2 °F 33.6 °F 32.0 °F 75% 29.80 in 6.2 mi South 8.1 mph - N/A   Overcast
5:50 AM 39.2 °F 33.6 °F 32.0 °F 75% 29.80 in 6.2 mi South 8.1 mph - N/A   Overcast
6:20 AM 39.2 °F 34.2 °F 32.0 °F 75% 29.80 in 6.2 mi South 6.9 mph - N/A   Overcast
6:50 AM 39.2 °F 34.2 °F 32.0 °F 75% 29.83 in 6.2 mi South 6.9 mph - N/A   Overcast
7:20 AM 39.2 °F 34.2 °F 32.0 °F 75% 29.83 in 6.2 mi South 6.9 mph - N/A   Overcast
7:50 AM 39.2 °F 34.2 °F 32.0 °F 75% 29.83 in 6.2 mi South 6.9 mph - N/A   Overcast
8:00 AM 38 °F - 34 °F 79% 29.86 in 8 mi South 6.7 mph - -   Overcast
8:20 AM 39.2 °F 35.0 °F 32.0 °F 75% 29.83 in 6.2 mi South 5.8 mph - N/A   Overcast
8:50 AM 37.4 °F 33.8 °F 32.0 °F 81% 29.86 in 3.7 mi South 4.6 mph - N/A Rain Light Rain
9:20 AM 37.4 °F 33.8 °F 33.8 °F 87% 29.86 in 5.6 mi South 4.6 mph - N/A   Overcast
9:50 AM 37.4 °F 32.8 °F 33.8 °F 87% 29.86 in 6.2 mi South 5.8 mph - N/A   Overcast
10:20 AM 37.4 °F 32.8 °F 33.8 °F 87% 29.86 in 6.2 mi SSW 5.8 mph - N/A   Overcast
10:50 AM 39.2 °F 34.2 °F 33.8 °F 81% 29.89 in 6.2 mi South 6.9 mph - N/A   Overcast
11:00 AM 39 °F - 36 °F 84% 29.91 in 5 mi South 4.5 mph - -   Mist
11:20 AM 39.2 °F 35.0 °F 33.8 °F 81% 29.89 in 5.6 mi South 5.8 mph - N/A   Overcast
11:50 AM 39.2 °F 35.9 °F 33.8 °F 81% 29.89 in 5.0 mi South 4.6 mph - N/A Rain Light Rain
12:20 PM 41.0 °F 38.0 °F 35.6 °F 81% 29.89 in 4.3 mi South 4.6 mph - N/A Rain Light Rain
12:50 PM 41.0 °F 37.1 °F 35.6 °F 81% 29.89 in 3.7 mi South 5.8 mph - N/A   Overcast
1:20 PM 41.0 °F 37.1 °F 37.4 °F 87% 29.92 in 3.1 mi SSW 5.8 mph - N/A Rain Light Rain
1:50 PM 42.8 °F 39.3 °F 37.4 °F 81% 29.92 in 3.1 mi SW 5.8 mph - N/A   Overcast
2:00 PM 42 °F - 40 °F 88% 29.94 in 4 mi West 4.5 mph - - Rain Light Rain
2:20 PM 42.8 °F 39.3 °F 39.2 °F 87% 29.92 in 3.1 mi WSW 5.8 mph - N/A   Overcast
2:50 PM 42.8 °F 41.1 °F 39.2 °F 87% 29.92 in 3.7 mi SW 3.5 mph - N/A   Overcast
3:20 PM 44.6 °F 42.2 °F 39.2 °F 81% 29.92 in 4.3 mi SW 4.6 mph - N/A   Overcast
3:50 PM 44.6 °F 40.7 °F 39.2 °F 81% 29.92 in 5.6 mi West 6.9 mph - N/A   Overcast
4:20 PM 42.8 °F 38.6 °F 39.2 °F 87% 29.95 in 5.6 mi West 6.9 mph - N/A   Mostly Cloudy
4:50 PM 42.8 °F 39.3 °F 37.4 °F 81% 29.95 in 6.2 mi West 5.8 mph - N/A   Overcast
5:00 PM 44 °F - 38 °F 73% 29.98 in 11 mi West 6.7 mph - -   Mostly Cloudy
5:20 PM 42.8 °F 39.3 °F 37.4 °F 81% 29.95 in 6.2 mi West 5.8 mph - N/A   Mostly Cloudy
5:50 PM 41.0 °F 37.1 °F 35.6 °F 81% 29.98 in 6.2 mi WNW 5.8 mph - N/A   Scattered Clouds
6:20 PM 37.4 °F 32.8 °F 33.8 °F 87% 29.98 in - West 5.8 mph - N/A   Clear
6:50 PM 35.6 °F 30.7 °F 33.8 °F 93% 30.01 in - WNW 5.8 mph - N/A   Clear
7:20 PM 35.6 °F - 32.0 °F 87% 30.01 in 5.0 mi Variable 2.3 mph - N/A   Unknown
7:50 PM 33.8 °F - 32.0 °F 93% 30.01 in - Calm Calm - N/A   Clear
8:00 PM 35 °F - 32 °F 84% 30.05 in 6 mi WSW 2.2 mph - -   Mist
8:20 PM 32.0 °F - 30.2 °F 93% 30.04 in 2.5 mi Calm Calm - N/A   Mist
8:29 PM 30.2 °F - 28.4 °F 93% 30.04 in 0.3 mi Calm Calm - N/A Fog Patches of Fog
8:50 PM 32.0 °F - 30.2 °F 93% 30.04 in 0.2 mi Calm Calm - N/A Fog Patches of Fog
9:20 PM 30.2 °F - 28.4 °F 93% 30.04 in 1.7 mi Calm Calm - N/A   Mist
9:50 PM 30.2 °F - 28.4 °F 93% 30.04 in 1.1 mi Calm Calm - N/A   Mist
10:20 PM 26.6 °F - 26.6 °F 100% 30.04 in 0.1 mi Variable 1.2 mph - N/A Fog Light Freezing Fog
10:50 PM 26.6 °F - 24.8 °F 93% 30.06 in 0.1 mi West 1.2 mph - N/A Fog Light Freezing Fog
11:00 PM 31 °F - 30 °F 94% 30.09 in 0 mi West 2.2 mph - - Fog Partial Fog
11:20 PM 28.4 °F - 26.6 °F 93% 30.06 in 0.1 mi Calm Calm - N/A Fog Light Freezing Fog
11:50 PM 26.6 °F - 24.8 °F 93% 30.06 in 0.1 mi Calm Calm - N/A Fog Light Freezing Fog